This is the latest recevied weather packets stored in our database for station/object W4DEX-2. If no packets are shown the sender has not sent any weather packets the latest 10 day(s).
| Time | Temp. | Humidity | Pressure | Rain* | Wind** | Luminosity | Snow |
|---|---|---|---|---|---|---|---|
| 1777775412 | 10.56° C | 52% | 1013.8 hPa | 0 mm | 4.92 m/s, 174° | - | - |
| 1777775102 | 10° C | 51% | 1013.8 hPa | 0 mm | 4.47 m/s, 172° | - | - |
| 1777774802 | 10° C | 52% | 1013.8 hPa | 0 mm | 4.02 m/s, 174° | - | - |
| 1777774503 | 10° C | 52% | 1013.8 hPa | 0 mm | 4.47 m/s, 177° | - | - |
| 1777774203 | 10° C | 53% | 1013.7 hPa | 0 mm | 4.92 m/s, 177° | - | - |
| 1777773902 | 10° C | 53% | 1013.7 hPa | 0 mm | 4.47 m/s, 176° | - | - |
| 1777773606 | 10° C | 53% | 1013.8 hPa | 0 mm | 4.47 m/s, 174° | - | - |
| 1777773002 | 10° C | 53% | 1013.7 hPa | 0 mm | 4.92 m/s, 175° | - | - |
| 1777772702 | 10° C | 53% | 1013.7 hPa | 0 mm | 4.92 m/s, 175° | - | - |
| 1777772103 | 10° C | 52% | 1013.3 hPa | 0 mm | 4.92 m/s, 176° | - | - |
| 1777771502 | 10.56° C | 51% | 1013.2 hPa | 0 mm | 4.47 m/s, 175° | - | - |
| 1777771202 | 10.56° C | 50% | 1013.3 hPa | 0 mm | 4.47 m/s, 180° | - | - |
| 1777770602 | 11.11° C | 49% | 1013 hPa | 0 mm | 4.47 m/s, 177° | - | - |
| 1777770302 | 11.11° C | 48% | 1012.8 hPa | 0 mm | 4.92 m/s, 180° | - | - |
| 1777770002 | 10.56° C | 50% | 1012.9 hPa | 0 mm | 4.02 m/s, 176° | - | - |
| 1777769702 | 10.56° C | 50% | 1012.8 hPa | 0 mm | 4.92 m/s, 177° | - | - |
| 1777769403 | 10.56° C | 49% | 1012.7 hPa | 0 mm | 4.92 m/s, 174° | - | - |
| 1777768802 | 10.56° C | 49% | 1012.3 hPa | 0 mm | 4.47 m/s, 174° | - | - |
| 1777768502 | 11.11° C | 48% | 1012.3 hPa | 0 mm | 4.47 m/s, 179° | - | - |
| 1777768203 | 11.11° C | 47% | 1012.2 hPa | 0 mm | 4.92 m/s, 172° | - | - |
| 1777767902 | 11.11° C | 51% | 1012.1 hPa | 0 mm | 4.92 m/s, 173° | - | - |
| 1777767303 | 11.11° C | 50% | 1011.9 hPa | 0 mm | 4.92 m/s, 175° | - | - |
| 1777767002 | 11.11° C | 50% | 1012 hPa | 0 mm | 4.92 m/s, 173° | - | - |
| 1777766702 | 11.11° C | 51% | 1012 hPa | 0 mm | 4.92 m/s, 174° | - | - |
| 1777766402 | 11.67° C | 55% | 1011.9 hPa | 0 mm | 4.92 m/s, 179° | - | - |
* Rain latest hour (hover to see other rain measurements)
** Current wind speed in m/s (hover to see current wind gust speed)